Location: Puketoi
(40.5833°S, 176.0167°E)
Time: 14:35:07
(UTC+00:00)

Cosmos 2297 Rocket - Pass Details

Date: 08 February 2023
Orbit: 839 x 843 km, 71.0° (Epoch: 22 March)

Event Time Altitude Azimuth Distance (km) Brightness Sun altitude
Rises 16:05:01 0° 216° (SW) 3,431 5.4 -15.5°
Reaches altitude 10° 16:07:49 10° 227° (SW) 2,487 4.5 -15.0°
Maximum altitude 16:12:28 26° 282° (WNW) 1,597 3.1 -14.3°
Enters shadow 16:15:13 18° 322° (NW) 1,945 3.5 -13.9°
